sat.trackr.live / text

‹ back to catalog

STARLINK-34540

NORAD 65657 · 2025-211F

PAYLOAD ACTIVE UNKNOWN

§ Identity

Operator
Country
US
Launch date
2025-09-19
Launch site
AFWTR
Launch vehicle
Mass (kg)
RCS (m²)

Purposes: comms

External: N2YO · Heavens-Above · Gunter

§ Orbital elements

Epoch: 2026-05-25T01:43:25.976352Z

Period
95.64 min
Inclination
97.4490°
Eccentricity
0.0000381
Mean motion
15.05649157 rev/d
Perigee alt
549.2 km
Apogee alt
549.8 km
Semi-major
6,927.7 km
B*
7.6440e-5
RAAN
188.9667°
Arg perigee
176.4946°
Mean anomaly
183.6284°
Rev number
3,853

§ Raw data

STARLINK-345401 65657U 25211F   26145.07182843  .00001045  00000+0  76440-4 0  99952 65657  97.4490 188.9667 0000381 176.4946 183.6284 15.05649157 38532

JSON: /api/v1/satellites/65657 · /tle

For live sub-satellite position, see the globe view (requires WebGL).

§ Visibility from observer

Set your observer location to see the next 7 days of passes ≥ 10°. The values pass through the URL so the page stays shareable.

No JS? Fill the form by hand. The geolocation button needs JavaScript.